This is the latest recevied weather packets stored in our database for station/object IU1INZ-13. If no packets are shown the sender has not sent any weather packets the latest 10 day(s).
| Time | Temp. | Humidity | Pressure | Rain* | Wind** | Luminosity | Snow |
|---|---|---|---|---|---|---|---|
| 1777361430 | 16.67° C | 69% | 1016.8 hPa | 0 mm | - | - | - |
| 1777360538 | 16.67° C | 70% | 1016.8 hPa | 0 mm | - | - | - |
| 1777359632 | 16.11° C | 71% | 1016.8 hPa | 0 mm | - | - | - |
| 1777358733 | 15.56° C | 74% | 1016.7 hPa | 0 mm | - | - | - |
| 1777357837 | 15.56° C | 77% | 1016.6 hPa | 0 mm | - | - | - |
| 1777356932 | 15° C | 78% | 1016.6 hPa | 0 mm | - | - | - |
| 1777356036 | 15° C | 79% | 1016.5 hPa | 0 mm | - | - | - |
| 1777355133 | 14.44° C | 79% | 1016.2 hPa | 0 mm | - | - | - |
| 1777354243 | 15° C | 78% | 1016.1 hPa | 0 mm | - | - | - |
| 1777353338 | 14.44° C | 79% | 1016 hPa | 0 mm | - | - | - |
| 1777352433 | 14.44° C | 79% | 1015.8 hPa | 0 mm | - | - | - |
| 1777351535 | 14.44° C | 78% | 1015.7 hPa | 0 mm | - | - | - |
| 1777350633 | 14.44° C | 78% | 1015.3 hPa | 0 mm | - | - | - |
| 1777349734 | 14.44° C | 78% | 1015.3 hPa | 0 mm | - | - | - |
| 1777348838 | 15° C | 78% | 1015.2 hPa | 0 mm | - | - | - |
| 1777347940 | 15° C | 77% | 1015.2 hPa | 0 mm | - | - | - |
| 1777347036 | 15.56° C | 77% | 1015.1 hPa | 0 mm | - | - | - |
| 1777346164 | 15.56° C | 76% | 1015.1 hPa | 0 mm | - | - | - |
| 1777345242 | 15.56° C | 76% | 1015.1 hPa | 0 mm | - | - | - |
| 1777344340 | 16.11° C | 75% | 1015.1 hPa | 0 mm | - | - | - |
| 1777343440 | 16.11° C | 75% | 1015.1 hPa | 0 mm | - | - | - |
| 1777342537 | 16.67° C | 73% | 1015.2 hPa | 0 mm | - | - | - |
| 1777341635 | 16.67° C | 73% | 1015.1 hPa | 0 mm | - | - | - |
| 1777340742 | 17.22° C | 72% | 1015.2 hPa | 0 mm | - | - | - |
| 1777339844 | 17.22° C | 71% | 1015.2 hPa | 0 mm | - | - | - |
* Rain latest hour (hover to see other rain measurements)
** Current wind speed in m/s (hover to see current wind gust speed)